| time (UTC) | temp C | wind direction | speed KPH | gust KPH | rain 1hr cm | rain 24hr cm | rain mn cm | humidity % | barometer mb |
| 20260506123030 | 19 | 179 | 6.4 | 25.7 | 0.00 | 0.00 | 0.00 | 64 | 1007.2 |
| 20260506121520 | 19 | 252 | 11.3 | 24.1 | 0.00 | 0.00 | 0.00 | 64 | 1007.3 |
| 20260506120047 | 18 | 211 | 12.9 | 16.1 | 0.00 | 0.00 | 0.00 | 65 | 1007.5 |
| 20260506114550 | 18 | 222 | 9.7 | 24.1 | 0.00 | 0.00 | 0.00 | 67 | 1007.7 |
| 20260506113030 | 18 | 236 | 8.0 | 22.5 | 0.00 | 0.00 | 0.00 | 68 | 1007.7 |
| 20260506111511 | 18 | 195 | 4.8 | 14.5 | 0.00 | 0.00 | 0.00 | 69 | 1007.6 |
| 20260506110127 | 17 | 298 | 8.0 | 19.3 | 0.00 | 0.00 | 0.00 | 70 | 1007.3 |
| 20260506104529 | 17 | 252 | 4.8 | 19.3 | 0.00 | 0.00 | 0.00 | 70 | 1007.6 |
| 20260506103019 | 17 | 190 | 6.4 | 17.7 | 0.00 | 0.00 | 0.00 | 70 | 1007.5 |
| 20260506101629 | 17 | 205 | 8.0 | 19.3 | 0.00 | 0.00 | 0.00 | 71 | 1007.3 |
| 20260506100053 | 17 | 160 | 4.8 | 9.7 | 0.00 | 0.00 | 0.00 | 71 | 1007.1 |
| 20260506094541 | 17 | 198 | 8.0 | 19.3 | 0.00 | 0.00 | 0.00 | 71 | 1007.2 |
| 20260506093031 | 17 | 188 | 6.4 | 14.5 | 0.00 | 0.00 | 0.00 | 71 | 1007.2 |
| 20260506091529 | 17 | 199 | 4.8 | 16.1 | 0.00 | 0.00 | 0.00 | 71 | 1007.3 |
| 20260506090005 | 17 | 260 | 4.8 | 14.5 | 0.00 | 0.00 | 0.00 | 70 | 1007.4 |
| 20260506084556 | 17 | 198 | 11.3 | 19.3 | 0.00 | 0.00 | 0.00 | 70 | 1007.5 |
| 20260506083032 | 17 | 182 | 6.4 | 19.3 | 0.00 | 0.00 | 0.00 | 69 | 1007.4 |
| 20260506081514 | 17 | 191 | 6.4 | 14.5 | 0.00 | 0.00 | 0.00 | 68 | 1007.5 |
| 20260506073025 | 18 | 182 | 8.0 | 16.1 | 0.00 | 0.00 | 0.00 | 66 | 1007.4 |
| 20260506071517 | 18 | 166 | 6.4 | 17.7 | 0.00 | 0.00 | 0.00 | 65 | 1007.6 |
| 20260506070124 | 18 | 224 | 6.4 | 17.7 | 0.00 | 0.00 | 0.00 | 64 | 1007.6 |
| 20260506061508 | 19 | 303 | 8.0 | 20.9 | 0.00 | 0.00 | 0.00 | 62 | 1007.6 |
| 20260506050128 | 20 | 268 | 6.4 | 14.5 | 0.00 | 0.00 | 0.00 | 59 | 1008.2 |
| 20260506044546 | 20 | 186 | 3.2 | 17.7 | 0.00 | 0.00 | 0.00 | 58 | 1008.2 |
| 20260506043040 | 20 | 247 | 6.4 | 16.1 | 0.00 | 0.00 | 0.00 | 57 | 1008.2 |
| 20260506041513 | 20 | 221 | 6.4 | 12.9 | 0.00 | 0.00 | 0.00 | 55 | 1008.1 |
| 20260506040009 | 20 | 155 | 6.4 | 19.3 | 0.00 | 0.00 | 0.00 | 54 | 1008.0 |
| 20260506034551 | 20 | 290 | 4.8 | 16.1 | 0.00 | 0.00 | 0.00 | 54 | 1008.1 |
| 20260506033041 | 20 | 277 | 8.0 | 20.9 | 0.00 | 0.00 | 0.00 | 53 | 1008.0 |
| 20260506031520 | 21 | 267 | 9.7 | 22.5 | 0.00 | 0.00 | 0.00 | 53 | 1007.9 |
| 20260506030001 | 21 | 148 | 8.0 | 27.4 | 0.00 | 0.00 | 0.00 | 53 | 1007.9 |
| 20260506024554 | 21 | 251 | 11.3 | 22.5 | 0.00 | 0.00 | 0.00 | 53 | 1008.0 |
| 20260506023018 | 21 | 221 | 8.0 | 20.9 | 0.00 | 0.00 | 0.00 | 53 | 1008.0 |
| 20260506021501 | 21 | 133 | 6.4 | 17.7 | 0.00 | 0.00 | 0.00 | 51 | 1007.9 |
| 20260506020120 | 22 | 187 | 8.0 | 22.5 | 0.00 | 0.00 | 0.00 | 50 | 1007.8 |
| 20260506014546 | 22 | 263 | 11.3 | 22.5 | 0.00 | 0.00 | 0.00 | 49 | 1007.8 |
| 20260506013016 | 22 | 218 | 9.7 | 29.0 | 0.00 | 0.00 | 0.00 | 48 | 1007.4 |
| 20260506011505 | 23 | 233 | 4.8 | 20.9 | 0.00 | 0.00 | 0.00 | 44 | 1007.2 |
| 20260506010051 | 25 | 191 | 8.0 | 22.5 | 0.00 | 0.00 | 0.00 | 39 | 1007.0 |
| 20260506004537 | 25 | 209 | 14.5 | 25.7 | 0.00 | 0.00 | 0.00 | 37 | 1006.7 |
| 20260506003017 | 25 | 260 | 14.5 | 27.4 | 0.00 | 0.00 | 0.00 | 37 | 1006.5 |
| 20260505234507 | 26 | 269 | 8.0 | 19.3 | 0.00 | 0.00 | 0.00 | 31 | 1006.2 |
| 20260505233047 | 26 | 228 | 16.1 | 29.0 | 0.00 | 0.00 | 0.00 | 30 | 1006.1 |
| 20260505231546 | 27 | 292 | 16.1 | 33.8 | 0.00 | 0.00 | 0.00 | 29 | 1005.9 |
| 20260505230017 | 27 | 234 | 14.5 | 32.2 | 0.00 | 0.00 | 0.00 | 28 | 1005.7 |
| 20260505224510 | 27 | 277 | 19.3 | 32.2 | 0.00 | 0.00 | 0.00 | 28 | 1005.6 |
| 20260505223048 | 27 | 96 | 14.5 | 27.4 | 0.00 | 0.00 | 0.00 | 28 | 1005.4 |
| 20260505221526 | 27 | 225 | 16.1 | 41.8 | 0.00 | 0.00 | 0.00 | 28 | 1005.4 |
| 20260505220004 | 27 | 248 | 19.3 | 38.6 | 0.00 | 0.00 | 0.00 | 28 | 1005.2 |
| 20260505214606 | 28 | 290 | 17.7 | 35.4 | 0.00 | 0.00 | 0.00 | 28 | 1005.0 |
| 20260505213026 | 28 | 245 | 16.1 | 33.8 | 0.00 | 0.00 | 0.00 | 29 | 1004.9 |
| 20260505211516 | 28 | 153 | 19.3 | 38.6 | 0.00 | 0.00 | 0.00 | 28 | 1004.8 |
| 20260505210124 | 28 | 263 | 20.9 | 37.0 | 0.00 | 0.00 | 0.00 | 28 | 1004.8 |
| 20260505204558 | 28 | 227 | 9.7 | 27.4 | 0.00 | 0.00 | 0.00 | 29 | 1004.8 |
| 20260505203126 | 28 | 248 | 12.9 | 48.3 | 0.00 | 0.00 | 0.00 | 28 | 1005.0 |
| 20260505201528 | 28 | 248 | 11.3 | 30.6 | 0.00 | 0.00 | 0.00 | 29 | 1005.1 |
| 20260505200018 | 28 | 345 | 16.1 | 38.6 | 0.00 | 0.00 | 0.00 | 29 | 1005.0 |
| 20260505194558 | 27 | 284 | 17.7 | 35.4 | 0.00 | 0.00 | 0.00 | 31 | 1005.4 |
| 20260505193049 | 28 | 275 | 17.7 | 41.8 | 0.00 | 0.00 | 0.00 | 29 | 1005.2 |
| 20260505191543 | 28 | 302 | 17.7 | 33.8 | 0.00 | 0.00 | 0.00 | 32 | 1005.7 |
| 20260505190017 | 27 | 240 | 12.9 | 27.4 | 0.00 | 0.00 | 0.00 | 35 | 1006.0 |
| 20260505184551 | 27 | 245 | 17.7 | 33.8 | 0.00 | 0.00 | 0.00 | 34 | 1006.3 |
| 20260505183055 | 27 | 257 | 12.9 | 43.5 | 0.00 | 0.00 | 0.00 | 35 | 1006.4 |
| 20260505181532 | 27 | 163 | 17.7 | 29.0 | 0.00 | 0.00 | 0.00 | 36 | 1006.3 |
| 20260505180019 | 27 | 171 | 17.7 | 32.2 | 0.00 | 0.00 | 0.00 | 38 | 1006.5 |
| 20260505174506 | 26 | 202 | 12.9 | 24.1 | 0.00 | 0.00 | 0.00 | 39 | 1006.6 |
| 20260505173051 | 26 | 198 | 11.3 | 33.8 | 0.00 | 0.00 | 0.00 | 39 | 1006.9 |
| 20260505171531 | 26 | 217 | 11.3 | 25.7 | 0.00 | 0.00 | 0.00 | 39 | 1007.0 |
| 20260505170009 | 26 | 183 | 11.3 | 27.4 | 0.00 | 0.00 | 0.00 | 40 | 1007.1 |
| 20260505164624 | 26 | 232 | 12.9 | 24.1 | 0.00 | 0.00 | 0.00 | 40 | 1007.2 |
| 20260505163031 | 25 | 295 | 8.0 | 30.6 | 0.00 | 0.00 | 0.00 | 41 | 1007.5 |
| 20260505161521 | 25 | 175 | 14.5 | 29.0 | 0.00 | 0.00 | 0.00 | 42 | 1007.8 |
| 20260505153059 | 23 | 279 | 9.7 | 22.5 | 0.00 | 0.00 | 0.00 | 45 | 1008.5 |
| 20260505151531 | 23 | 184 | 9.7 | 17.7 | 0.00 | 0.00 | 0.00 | 45 | 1008.5 |
| 20260505130117 | 18 | 208 | 6.4 | 17.7 | 0.00 | 0.00 | 0.00 | 55 | 1008.7 |
| 20260505124535 | 18 | 257 | 6.4 | 20.9 | 0.00 | 0.00 | 0.00 | 57 | 1008.6 |